Location: Newark
(52.3735°N, 16.9806°E)
Time: 01:43:04
(UTC+00:00)

ISS - Pass Details

Date: 26 September 2021
Orbit: 417 x 423 km, 51.6° (Epoch: 25 October)

Event Time Altitude Azimuth Distance (km) Brightness Sun altitude
Rises 17:22:13 0° 262° (W) 2,362 1.9 -7.1°
Reaches altitude 10° 17:24:19 10° 261° (W) 1,500 0.5 -7.5°
Maximum altitude 17:27:41 79° 176° (S) 433 -3.7 -8.0°
Enters shadow 17:30:50 12° 89° (E) 1,412 -1.7 -8.5°
